Flag for Canada Weather past 2 weeks in Conception Bay South, Newfoundland and Labrador, Canada

Now
48 °F

Drizzle. Fog.


Feels Like: 43 °F
Forecast: 52 / 67 °F
Wind: 14 mph from Southeast

Location: St. John's

Current Time: Jul 3, 2015 at 4:17:03 AM

Latest Report: Jul 3, 2015 at 3:30 AM


Visibility: 0 mi

Pressure: 29.96 "Hg

Humidity: 100%

Dew point: 48 °F

Location of Conception Bay SouthLocation

Historic Weather in Conception Bay South — Graph

°F

Conception Bay South temperature yesterday

Maximum temperature yesterday: 59 °F (at 1:30 PM)
Minimum temperature yesterday: 46 °F (at 4:30 AM)
Average temperature yesterday: 50 °F

Past Weeks' High & Low Weather Summary

 TemperatureHumidityPressure
High72 °F (Jun 18, 1:30 PM)100% (Jun 19, 8:30 PM)30.20 "Hg (Jun 19, 8:30 PM)
Low39 °F (Jun 23, 7:30 PM)35% (Jun 18, 5:30 PM)29.75 "Hg (Jun 25, 1:30 PM)
Average51 °F81%29.98 "Hg
* Reported Jun 18 2:30 AM — Jul 3 2:30 AM, Conception Bay South, Weather by CustomWeather, © 2015

Note: Actual official high and low records may vary slightly from our data, if they occured in-between our weather recording intervals... More about our weather records

Advertising

Conception Bay South weather history for previous 24 hours

 ConditionsComfort  
Time TempWeatherWind HumidityBarometerVisibility
2:30 AM
Fri, Jul 3
48 °FSprinkles. Fog.5 mph100%29.98 "Hg1 mi
1:30 AM46 °FSprinkles. Fog.20 mph100%29.98 "Hg1 mi
12:30 AM46 °FLots of rain. Fog.20 mph100%30.01 "Hg1 mi
11:30 PM
Thu, Jul 2
46 °FLow clouds.16 mph100%30.03 "Hg3 mi
10:30 PM48 °FMostly cloudy.9 mph94%30.05 "Hg12 mi
9:30 PM46 °FMore clouds than sun.17 mph100%30.04 "Hg12 mi
8:30 PM48 °FSprinkles. More clouds than sun.13 mph94%30.06 "Hg10 mi
7:30 PM48 °FSprinkles. More clouds than sun.8 mph100%30.07 "Hg10 mi
6:30 PM48 °FOvercast.10 mph94%30.07 "Hg15 mi
5:30 PM50 °FMore clouds than sun.10 mph94%30.09 "Hg15 mi
4:30 PM50 °FPartly sunny.13 mph88%30.08 "Hg15 mi
3:30 PM57 °FPartly sunny.12 mph77%30.08 "Hg15 mi
2:30 PM57 °FBroken clouds.9 mph77%30.09 "Hg15 mi
1:30 PM59 °FBroken clouds.9 mph72%30.08 "Hg15 mi
12:30 PM57 °FScattered clouds.10 mph77%30.09 "Hg15 mi
11:30 AM54 °FBroken clouds.10 mph82%30.10 "Hg15 mi
10:30 AM54 °FBroken clouds.8 mph88%30.10 "Hg12 mi
9:30 AM48 °FFog.6 mph94%30.10 "Hg3 mi
8:30 AM48 °FFog.7 mph100%30.09 "Hg2 mi
8:17 AM48 °FFog.5 mph100%30.09 "Hg2 mi
7:30 AM46 °FFog.7 mph100%30.08 "Hg0 mi
6:30 AM48 °FFog.6 mph94%30.08 "Hg0 mi
5:30 AM48 °FFog.2 mph100%30.06 "Hg0 mi
4:30 AM46 °FFog.3 mph100%30.06 "Hg6 mi
Weather by CustomWeather, © 2015

See weather overviewHow to use our weather pages